Regional Weather Roundup
Issued by NWS

Home | Current Version | Previous Version | Text Only | Print | Product List | Glossary On
Versions: 1 2 3 4 5 6 7 8 9 10 11 12 13 14 15 16 17 18 19 20 21 22 23 24 25 26 27 28 29 30 31 32 33 34 35 36 37 38 39 40 41 42 43 44 45 46 47 48 49 50
000
ASUS43 KMPX 121010
RWRMN
WEATHER ROUNDUP FOR MINNESOTA
NATIONAL WEATHER SERVICE TWIN CITIES/CHANHASSEN MN
500 AM CDT SAT JUL 12 2014


NOTE: "FAIR" INDICATES FEW OR NO CLOUDS BELOW 12,000 FEET WITH NO
SIGNIFICANT WEATHER AND/OR OBSTRUCTIONS TO VISIBILITY. N/A MEANS
CURRENT SKY AND/OR WEATHER CONDITIONS ARE NOT AVAILABLE.

MNZ060>063-068>070-121100-
   Twin Cities Metro

CITY           SKY/WX    TMP DP  RH WIND       PRES   REMARKS
TWIN CITIES    CLOUDY    71  69  93 S5        30.00R
ST PAUL        MOCLDY    69  68  96 SE6       29.99R
CRYSTAL        MOCLDY    72  68  87 CALM      29.98R
BLAINE         MOCLDY    72  70  94 CALM      29.99S
LAKEVILLE      CLOUDY    66  66 100 CALM      30.01R FOG
EDEN PRAIRIE   CLOUDY    70  68  93 SW6       29.99R FOG
SOUTH ST PAUL  MOCLDY    69  67  94 CALM      30.00R FOG
LAKE ELMO      FAIR      66  66 100 S3        30.01R FOG
$$
MNZ001>005-007-008-013>017-022>024-027-028-121100-
   Northwest Minnesota

CITY           SKY/WX    TMP DP  RH WIND       PRES   REMARKS
BEMIDJI        PTCLDY    54  52  92 NW5       30.03R
HALLOCK        CLEAR     55  52  88 CALM      30.01S
ROSEAU         CLEAR     54  48  82 CALM      30.01S
WARROAD        CLEAR     55  52  88 W3        30.01S
THIEF RVR FALL PTCLDY    55  54  94 CALM      30.02S
CROOKSTON      PTCLDY    55  54  94 CALM      30.03S
FOSSTON        CLEAR     52  48  87 CALM      30.04R
DETROIT LAKES  MOCLDY    63  57  82 CALM      30.05S
MOORHEAD       PTCLDY    61  61 100 N5        30.04S
PARK RAPIDS    MOCLDY    57  55  93 W3        30.03R
$$
MNZ006-009>011-018-025>026-121100-
   North Central Minnesota

CITY           SKY/WX    TMP DP  RH WIND       PRES   REMARKS
BAUDETTE       CLEAR     58  54  86 VRB3      30.01S
FLAG ISLAND    CLEAR     63  55  77 W5        29.98S HAZE
INTL FALLS     CLEAR     48  47  96 CALM      29.98S
WASKISH        CLEAR     57  54  88 CALM      30.01S
BIG FORK       CLEAR     52  50  93 CALM      30.02S
LONGVILLE      MOCLDY    55  55 100 CALM      30.02R
GRAND RAPIDS   PTCLDY    57  55  94 CALM      30.02R VSB 1
CRANE LAKE     CLOUDY    52  52 100 CALM      30.00S
ORR            MOCLDY    54  52  94 CALM      29.98S
COOK           CLEAR     54  52  94 CALM      30.01R
$$
MNZ012-019>021-037-121100-
   Northeast Minnesota

CITY           SKY/WX    TMP DP  RH WIND       PRES   REMARKS
DULUTH         MOCLDY    63  60  90 NW7       29.99R
ELY            CLEAR     52  48  87 CALM      29.99S
HIBBING        CLEAR     50  48  93 CALM      30.01R FOG
EVELETH        FOG       54  54 100 CALM      30.01R VSB 1/2
DULUTH HARBOR  MOCLDY    66  63  88 CALM      29.97S
TWO HARBORS    PTCLDY    63  57  82 NW5       29.96R
SILVER BAY     PTCLDY    61  61 100 NW3       29.95R
GRAND MARAIS     N/A     43  42  97 S3        29.92S
G MARAIS ARPRT CLEAR     55  52  88 N6        29.98S
$$
MNZ029>031-032-039>041-046>048-054>057-064-121100-
   West Central Minnesota

CITY           SKY/WX    TMP DP  RH WIND       PRES   REMARKS
FERGUS FALLS   CLOUDY    64  55  72 CALM      30.03R
WHEATON        CLOUDY    63  57  82 N3        30.04F
MORRIS         CLOUDY    66  63  88 CALM      30.01S
ALEXANDRIA     CLOUDY    69  57  65 NE7       30.04S
ELBOW LAKE     FAIR      66  59  77 N5        30.02S
WADENA         CLOUDY    61  59  94 CALM      30.03S
GLENWOOD       CLOUDY    66  57  72 N9        30.03S
APPLETON       CLOUDY    70  63  78 N6        30.00S
BENSON         CLOUDY    70  61  73 CALM      30.00F
ORTONVILLE     CLOUDY    70  57  64 N9        30.01S
MADISON        MOCLDY    73  64  73 N5        30.00F
WILLMAR        FAIR      73  66  78 NE8       30.01S
$$
MNZ033>034-036-042>043-049>051-058-059-121100-
   Central Minnesota

CITY           SKY/WX    TMP DP  RH WIND       PRES   REMARKS
ST CLOUD       MOCLDY    69  67  93 CALM      30.00R FOG
SAUK CENTRE    FAIR      66  60  81 N5        30.02F
PAYNESVILLE    CLOUDY    67  64  88 NW3       30.01S
AITKIN         MOCLDY    59  54  82 CALM      30.00S
PINE RIVER     MOCLDY    57  57 100 CALM      30.06R
BRAINERD       MOCLDY    67  60  78 CALM      30.03R
STAPLES        CLOUDY    61  57  88 CALM      30.03R
LONG PRAIRIE   CLOUDY    64  59  82 N5        30.03S
LITTLE FALLS   CLOUDY    63  61  94 CALM      30.02R
LITCHFIELD     CLOUDY    73  73 100 CALM      30.01R FOG
BUFFALO        MOCLDY    70  68  93 CALM      30.01R FOG
MAPLE LAKE     CLOUDY    71  70  98 CALM      30.01R FOG
$$
MNZ037-044-045-052-053-121100-
   East Central Minnesota

CITY           SKY/WX    TMP DP  RH WIND       PRES   REMARKS
PRINCETON      FOG       70  68  94 CALM      30.00R VSB 1/4
MORA           FOG       64  64 100 CALM      30.02R VSB 1/4
CAMBRIDGE      PTCLDY    70  63  78 CALM      29.98R HAZE
RUSH CITY      FOG       64  63  96 CALM      30.00R VSB 1
MOOSE LAKE     MOCLDY    59  59 100 CALM      29.99R
HINCKLEY       FAIR      61  61 100 CALM      29.99R
CLOQUET        MOCLDY    61  57  88 NW6       30.00R
MCGREGOR       MOCLDY    59  57  94 CALM      30.02R
$$
MNZ071>073-080-081-089-090-097-098-121100-
   Southwest Minnesota

CITY           SKY/WX    TMP DP  RH WIND       PRES   REMARKS
MONTEVIDEO     CLOUDY    72  66  83 NE9       30.00S
GRANITE FALLS    N/A     70  68  94 CALM      30.00F FOG
CANBY          MOCLDY    70  65  86 NW7       30.02S
MARSHALL       CLOUDY    73  70  88 SW6       30.00R
REDWOOD FALLS  CLOUDY    72  71  97 S8        29.99R FOG
OLIVIA         CLOUDY    70  68  94 CALM      29.99S FOG
PIPESTONE      CLOUDY    72  70  94 SW6       30.03F FOG
WINDOM         CLOUDY    72  68  88 S9        30.04F FOG
WORTHINGTON    CLOUDY    75  70  83 SW12      30.06F
JACKSON        CLOUDY    72  68  88 SW7       30.06F
TRACY          CLOUDY    73  71  92 SW10G17   30.02S FOG
SLAYTON        CLOUDY    70  69  97 CALM      30.05S FOG
$$
MNZ065>067-074>077-082>085-091>093-121100-
   South Central Minnesota

CITY           SKY/WX    TMP DP  RH WIND       PRES   REMARKS
MANKATO        CLOUDY    70  66  88 SW5       30.03R
NEW ULM        CLOUDY    70  70 100 SW7       30.01S FOG
ST JAMES       CLOUDY    72  70  94 S6        30.03F FOG
FAIRMONT       CLOUDY    72  66  83 SW5       30.05S
GLENCOE        CLOUDY    70  67  90 S3        30.00R FOG
FARIBAULT      CLOUDY    72  66  83 S6        30.03R HAZE
OWATONNA       CLOUDY    70  66  88 S7        30.05R FOG
WASECA         CLOUDY    68  64  88 SW7       30.06R FOG
ALBERT LEA     CLOUDY    70  68  94 SW6       30.06R FOG
$$
MNZ078>079-086>088-094>096-121100-
   Southeast Minnesota

CITY           SKY/WX    TMP DP  RH WIND       PRES   REMARKS
ROCHESTER      CLOUDY    67  65  93 S6        30.06R FOG
RED WING       PTCLDY    70  66  88 CALM      30.00R
STANTON        CLOUDY    68  65  92 S3        30.00R FOG
DODGE CENTER   CLOUDY    68  66  94 SW8       30.05R FOG
WINONA         MOCLDY    70  68  94 CALM      30.02R
AUSTIN         CLOUDY    70  68  94 SW3       30.06R FOG
PRESTON        CLOUDY    68  67  97 CALM      30.06R FOG
$$
ABBREVIATIONS USED IN REMARKS
   TC - TEMPERATURES IN CELSIUS
  WCI - WIND CHILL INDEX
   HX - HEAT INDEX
  VSB - VISIBILITY
$$


USA.gov is the U.S. government's official web portal to all federal, state and local government web resources and services.